Friday, December 14, 2018, 7:01 PM EST
Back to Local

KTEB, Teterboro Airport

Location: South Hackensack, NJ, United States Lat: 40.867
Local Time: 7:01 PM EST ( 0:01 GMT) Lon: -74.05
Time Zone: US/Eastern Elev: 9 ft

Show me the last for .
Show Decoded

2018-12-14 17:51 METAR KTEB 142251Z 16005KT 10SM -RA OVC014 11/08 A3033 RMK AO2 RAB16 SLP271
                 P0000 T01060083 =
2018-12-14 16:51 METAR KTEB 142151Z 00000KT 10SM FEW015 OVC070 09/07 A3034 RMK AO2 RAB33E48
                 SLP274 P0000 T00940067 =
2018-12-14 15:51 METAR KTEB 142051Z 13007G17KT 10SM BKN017 BKN033 OVC070 11/06 A3035 RMK AO2
                 SLP277 T01060061 56006 =
2018-12-14 14:51 METAR KTEB 141951Z 13006KT 10SM BKN019 OVC023 09/06 A3035 RMK AO2 SLP278
                 T00940056 =
2018-12-14 13:51 METAR KTEB 141851Z 13006G20KT 9SM OVC020 12/06 A3036 RMK AO2 SLP281 T01220056 =
2018-12-14 12:51 METAR KTEB 141751Z 12007KT 10SM OVC023 09/05 A3037 RMK AO2 SLP283 T00890050
                 10106 20050 56040 =
2018-12-14 11:51 METAR KTEB 141651Z 11009KT 10SM OVC027 09/04 A3039 RMK AO2 SLP290 T00890044 =
2018-12-14 10:51 METAR KTEB 141551Z 13007KT 10SM OVC028 09/04 A3044 RMK AO2 SLP309 T00890044 =
2018-12-14 09:51 METAR KTEB 141451Z 11005KT 10SM OVC027 08/04 A3048 RMK AO2 SLP323 T00780039
                 51006 =
2018-12-14 08:51 METAR KTEB 141351Z 12005KT 10SM OVC027 07/04 A3048 RMK AO2 SLP322 T00670039 =
2018-12-14 07:51 METAR KTEB 141251Z 36004KT 10SM OVC027 05/03 A3047 RMK AO2 SLP318 T00500033 =
2018-12-14 06:51 METAR KTEB 141151Z 01003KT 10SM OVC027 05/03 A3047 RMK AO2 SLP316 70001
                 T00500033 10050 20028 55001 =
2018-12-14 05:51 METAR KTEB 141051Z 36003KT 10SM BKN018 OVC027 04/02 A3045 RMK AO2 SLP310
                 T00390022 =
2018-12-14 04:51 METAR KTEB 140951Z 01003KT 10SM OVC013 04/02 A3045 RMK AO2 SLP312 T00390022 =
2018-12-14 03:51 METAR KTEB 140851Z 03003KT 10SM OVC013 04/02 A3047 RMK AO2 SLP318 T00390022
                 58001 =
2018-12-14 02:51 METAR KTEB 140751Z 36007KT 10SM OVC013 04/02 A3048 RMK AO2 SLP320 T00390017 =
2018-12-14 01:51 METAR KTEB 140651Z 35008KT 9SM OVC014 03/02 A3047 RMK AO2 SLP318 T00330017 =
2018-12-14 00:51 METAR KTEB 140551Z 35007KT 8SM OVC010 03/02 A3047 RMK AO2 SLP319 60000 T00280017
                 10028 20017 58003 =
2018-12-13 23:51 METAR KTEB 140451Z 36007KT 5SM BR OVC014 03/01 A3048 RMK AO2 SLP322 T00280011
                 400281006 =
2018-12-13 22:51 METAR KTEB 140351Z 36007KT 4SM BR OVC010 03/01 A3049 RMK AO2 SLP324 T00280011 =
2018-12-13 21:51 METAR KTEB 140251Z 01007KT 4SM BR OVC010 02/01 A3048 RMK AO2 SLP321 60000
                 T00220006 51006 =
2018-12-13 21:09 METAR KTEB 140209Z 36007KT 4SM BR OVC010 02/01 A3048 RMK AO2 T00220006 =
2018-12-13 20:51 METAR KTEB 140151Z 36008KT 4SM BR OVC009 02/01 A3048 RMK AO2 RAB03E22 SLP320
                 P0000 T00220006 =
2018-12-13 19:51 METAR KTEB 140051Z 02007KT 4SM BR OVC009 02/01 A3047 RMK AO2 RAB12E43 SLP318
                 P0000 T00170006 =

Support USWX by starting your Amazon purchase here.